User: anonymous   Login
Location: Waning Moon II Observatory
(30.3730°N, 89.7620°W)
Time: 23:13:55
(UTC-05:00)
Language:

Meteor 1-21 - Orbit

View from above orbital plane
View from above orbital plane
View from above satellite
View from above satellite

Ground track
Ground track

The orbit data is extracted from the following two-line orbital elements,

1 07714U 75023A   14296.81495113  .00000381  00000-0  21606-3 0  9226
2 07714 081.2125 053.5280 0034734 099.5396 011.0517 14.07829352349074
Epoch (UTC): 23 October 2014 19:33:31
Eccentricity: 0.0034734
inclination: 81.2125°
perigee height: 841 km
apogee height: 892 km
right ascension of ascending node: 53.5280°
argument of perigee: 99.5396°
revolutions per day: 14.07829352
mean anomaly at epoch: 11.0517°
orbit number at epoch: 34907

The dashed part of the orbit path shows where the satellite is in the earth's shadow,  

DLR